Theta_e
296 296 296 296 296 296 296 296 297 296 296 297 298 299 301 303 305 305 305 304 302 302 304 304 303 304 305 305 305 305 306 306 306 307 307 306 307 306 307 307 307 307 307 307 308 310 312 309 306 307 306 305 306 305 305 306 306 307 307 307 310 312 312 313 317 316 311 309 310 309 310 310 310 312 312 313 315 318 326 337 332 318 316 320 317 318 333
297 296 296 295 295 296 296 296 297 296 296 297 298 299 302 303 303 304 305 304 303 303 306 306 305 305 305 305 305 305 306 306 306 307 307 308 307 307 308 308 307 307 307 308 309 310 313 312 309 308 308 308 309 306 305 306 306 307 309 310 310 313 316 315 315 314 311 311 311 308 309 311 313 317 313 312 318 318 322 330 323 316 321 322 318 321 333
297 297 296 296 295 296 296 296 296 296 296 297 298 300 302 303 304 304 305 305 304 304 305 305 305 305 304 305 305 305 306 306 306 306 307 307 307 308 309 308 308 308 307 309 309 309 312 312 312 311 309 312 311 305 304 306 305 307 311 314 312 315 320 318 317 319 316 314 315 313 312 313 315 319 314 311 316 316 318 321 317 317 322 320 321 328 336
297 297 297 296 295 295 296 296 296 296 296 297 298 299 301 304 305 304 305 305 305 304 303 302 303 304 304 305 306 307 308 307 307 306 307 307 307 308 310 309 310 310 309 310 311 311 311 311 313 312 311 314 311 304 304 305 305 308 313 316 318 318 321 322 324 325 319 316 321 319 314 313 314 314 312 313 317 319 323 323 320 324 325 322 329 338 343
297 297 297 296 296 295 296 296 296 295 296 298 299 300 302 305 306 305 305 306 306 305 304 302 303 304 304 305 307 308 308 309 308 306 307 308 307 309 311 310 312 311 309 311 314 313 311 311 312 312 312 315 312 305 304 305 307 313 313 314 318 317 319 324 325 324 319 318 322 319 314 315 316 314 314 316 321 322 319 321 326 328 322 322 333 341 345
297 297 297 296 296 296 295 296 296 295 296 298 300 302 304 304 305 304 304 306 306 306 306 305 305 305 304 304 306 308 309 310 310 309 308 309 308 311 312 309 309 310 309 313 317 316 315 314 313 313 314 317 315 307 304 305 311 317 313 315 321 317 318 323 321 322 324 320 319 317 316 319 318 318 319 320 324 321 315 326 337 327 317 326 338 339 343
297 297 297 296 296 296 295 295 296 295 296 297 299 301 302 302 303 302 302 304 304 304 305 306 307 307 306 305 306 308 310 311 312 311 311 312 311 312 314 311 309 311 313 315 318 319 318 317 317 317 316 318 317 311 309 309 313 315 310 313 321 320 323 327 320 319 324 322 319 317 315 317 316 318 323 325 329 325 321 332 339 326 321 337 345 343 344
298 297 297 296 296 296 296 295 296 295 295 296 297 299 299 300 300 301 301 301 302 304 306 306 307 308 308 308 308 309 311 312 312 311 312 315 313 312 315 316 314 316 316 317 319 319 318 317 319 318 317 319 319 316 316 312 311 313 311 311 317 318 324 329 324 318 321 324 325 323 319 318 315 316 325 330 328 325 322 325 330 330 331 335 340 342 343
298 297 297 297 296 297 296 295 295 295 296 296 296 297 298 298 299 299 300 301 302 305 306 306 308 309 308 309 310 310 312 312 312 311 311 313 314 314 316 317 316 317 317 317 320 320 318 318 318 317 317 319 319 317 317 315 312 313 314 315 318 319 322 329 327 321 320 324 325 325 324 322 315 313 321 326 322 319 320 322 326 334 338 336 337 342 344
298 298 297 297 297 297 296 296 295 295 296 296 296 297 297 297 298 299 300 302 303 305 306 306 308 309 308 309 309 310 313 313 312 314 315 313 314 315 316 316 317 317 318 320 320 318 317 317 316 315 315 316 316 316 316 315 313 314 317 320 323 324 323 324 324 321 319 323 327 327 322 317 316 320 323 325 324 321 319 321 322 328 339 345 344 343 343
298 298 297 297 297 297 296 296 295 295 296 296 296 296 297 297 297 298 300 303 304 304 305 307 308 308 308 308 308 309 312 313 313 316 318 317 316 317 317 316 316 317 320 321 318 315 315 314 313 314 315 314 315 316 315 316 315 315 321 324 324 324 321 318 320 320 319 327 330 326 320 318 322 331 332 329 327 324 320 319 319 324 334 341 343 342 341
298 298 297 298 297 297 296 296 295 295 295 296 296 296 296 296 297 298 301 303 304 303 304 306 307 307 307 307 308 308 310 312 313 314 315 317 317 317 319 318 317 320 321 319 316 315 315 316 315 314 316 316 315 315 316 316 314 314 322 328 325 322 319 318 320 319 321 332 333 322 321 327 331 334 333 329 328 328 325 323 323 326 330 335 341 346 344
298 298 297 298 297 297 296 296 296 295 295 296 296 296 296 296 297 299 300 302 303 303 303 305 305 306 307 307 307 308 309 311 312 313 314 316 316 317 319 319 319 321 319 316 316 315 317 323 321 315 315 317 314 313 316 316 314 315 319 325 328 325 320 319 319 318 320 328 331 327 326 328 330 330 327 325 324 323 323 320 318 325 331 336 344 348 341
297 297 298 298 298 297 297 296 296 296 295 295 295 296 296 296 297 298 299 302 303 302 303 305 305 305 306 306 306 308 310 310 311 313 315 316 317 320 320 318 317 318 314 314 317 317 318 327 329 316 313 317 314 312 315 314 314 319 317 317 324 328 323 319 317 319 323 327 328 333 331 325 327 328 323 323 321 320 328 327 318 320 326 330 338 340 335
297 298 298 298 298 297 297 296 296 296 295 295 295 296 296 296 297 298 299 301 302 303 305 306 305 305 305 306 307 309 310 310 311 313 314 314 317 319 318 316 314 315 314 315 321 322 319 324 329 319 312 315 316 313 314 311 311 317 319 315 318 321 320 322 320 320 327 334 334 335 333 328 330 332 329 331 326 324 335 336 321 321 324 326 334 337 334
298 298 298 298 298 297 297 296 296 296 296 295 295 295 295 296 296 297 298 299 302 305 306 305 303 304 305 305 307 310 311 311 311 313 315 315 315 315 315 314 313 314 318 319 321 323 322 320 324 322 315 313 315 312 312 314 313 312 315 316 317 319 325 334 331 321 325 336 336 330 328 326 329 331 330 330 326 325 329 328 324 329 328 325 333 338 333
298 298 298 298 297 297 297 297 297 296 296 295 295 295 295 296 296 296 298 299 301 303 303 302 302 304 305 307 308 309 311 311 312 314 315 315 315 315 314 314 314 314 319 324 323 324 325 323 323 325 320 315 314 312 312 316 314 310 311 315 316 320 329 336 332 321 321 329 328 324 325 325 324 328 329 327 323 323 322 323 331 339 333 326 333 339 333
299 298 298 298 297 297 298 297 297 297 296 295 295 295 295 295 296 296 297 298 299 301 302 302 302 302 304 306 307 308 309 310 310 312 313 314 316 315 313 313 317 317 318 324 325 322 323 323 320 322 322 318 319 320 315 313 312 312 313 315 315 319 324 328 329 323 321 323 320 319 324 326 324 328 331 327 322 321 325 331 336 340 337 331 332 334 332
299 299 298 298 298 298 298 298 297 297 297 295 295 295 295 295 296 296 296 297 298 300 301 300 300 300 302 304 305 305 306 307 309 310 312 314 314 312 312 313 317 319 318 321 324 321 321 322 319 319 323 323 322 322 320 315 314 314 313 315 318 319 318 319 321 318 317 324 326 323 324 326 325 327 330 325 321 325 334 337 334 333 336 335 331 330 331
299 299 298 298 298 298 298 298 297 297 297 296 295 295 295 295 295 295 295 296 296 298 298 298 298 301 303 304 305 305 305 306 309 309 311 313 311 311 317 319 318 319 320 321 323 321 321 324 322 320 323 323 320 323 325 323 321 317 314 316 319 319 317 319 320 317 317 324 327 322 323 327 325 324 326 324 324 333 339 336 331 330 335 337 332 329 330
299 299 299 298 298 298 298 298 297 297 297 297 296 295 295 295 295 295 295 295 295 297 299 299 299 299 300 301 301 301 301 304 307 308 309 310 310 312 318 321 320 321 321 320 321 321 321 323 323 321 322 322 321 323 324 324 324 319 316 318 318 316 317 322 323 322 321 324 325 323 328 333 328 324 328 330 327 328 333 333 331 332 334 336 333 328 328
299 299 299 298 298 298 298 298 297 297 298 297 296 296 295 295 295 295 295 295 295 296 298 298 297 296 297 298 299 299 301 302 303 305 307 308 311 314 317 320 322 323 320 319 321 321 321 321 322 323 323 322 324 324 321 321 324 321 319 321 320 316 319 324 325 321 319 324 329 329 330 331 328 325 329 331 328 328 330 331 332 333 332 332 333 330 327
299 299 299 299 298 298 298 298 298 298 298 297 297 296 296 295 295 295 295 295 294 295 295 295 297 299 300 301 303 304 304 303 303 304 305 307 311 316 319 320 321 321 320 321 321 320 321 320 319 321 322 320 322 326 324 321 323 322 320 322 321 318 320 325 326 324 322 324 328 327 325 328 330 328 326 328 329 330 331 333 334 332 328 328 332 332 328
299 299 299 299 298 298 298 298 298 298 297 297 297 297 295 295 295 295 295 294 294 296 298 298 300 303 304 304 305 305 305 305 305 305 305 307 310 315 319 320 320 320 322 322 319 318 320 320 318 320 322 319 320 324 324 321 322 321 321 324 324 321 322 324 325 327 329 330 330 328 326 328 331 330 328 327 328 329 331 334 335 332 328 329 332 331 329
299 299 299 299 298 298 298 298 298 298 298 298 297 296 295 295 295 295 295 294 294 296 300 302 301 302 304 304 304 305 305 305 305 305 306 307 308 311 315 317 317 318 321 320 317 318 320 320 320 321 321 319 321 323 321 319 320 319 319 325 324 320 321 325 327 328 328 326 327 329 328 329 330 331 330 329 329 329 330 331 331 330 328 328 328 328 331
299 299 299 299 298 298 298 298 298 298 298 297 296 296 295 295 295 294 294 294 294 295 298 300 302 302 303 304 304 305 305 303 303 304 305 305 306 308 310 312 313 316 319 320 319 320 320 320 320 321 322 320 321 324 322 321 321 318 320 326 325 320 321 323 324 327 326 323 323 325 328 331 331 328 328 330 330 331 332 331 331 331 330 329 328 327 328
298 299 299 299 299 298 298 298 298 298 297 297 296 295 295 295 295 295 294 294 297 300 300 301 302 302 302 303 304 303 303 302 303 303 304 305 307 307 308 310 314 317 318 319 318 317 318 318 319 321 322 320 320 322 323 323 321 319 323 329 326 323 324 324 324 329 332 330 329 328 328 333 331 325 326 329 328 331 337 336 333 332 332 333 334 329 324
297 298 299 299 299 299 299 299 299 298 297 297 296 296 296 298 298 297 295 294 297 301 301 300 301 302 303 305 303 302 302 302 303 304 306 306 305 306 309 311 314 317 319 320 319 318 319 320 320 320 320 319 320 322 322 321 320 320 327 332 327 322 324 328 332 334 331 331 333 330 328 332 331 327 328 328 326 331 337 335 331 332 332 333 338 337 330
297 298 299 299 299 299 299 299 299 298 297 297 296 295 297 301 300 298 297 296 296 298 299 300 301 304 306 305 302 300 301 303 304 304 305 305 305 308 312 312 313 319 322 321 320 321 323 323 322 321 320 320 320 321 321 322 323 325 330 332 329 325 324 326 330 329 325 326 332 331 329 328 326 325 327 325 324 329 333 329 329 332 330 329 333 339 337
297 298 299 299 299 300 299 299 298 298 297 298 296 295 297 301 300 298 297 296 296 297 299 301 302 303 303 302 301 301 302 303 305 305 306 308 312 314 315 314 315 319 320 319 318 320 322 322 320 320 320 319 318 318 319 320 323 328 331 330 328 328 326 325 326 324 322 326 331 330 328 328 325 323 323 324 326 330 329 326 326 328 329 328 329 331 333
298 298 298 299 299 300 299 298 298 298 298 298 296 296 299 302 301 299 298 297 296 296 298 300 301 301 301 301 303 304 304 302 304 306 306 308 311 310 308 309 312 315 317 318 316 315 318 320 320 319 319 319 319 320 320 321 324 328 330 329 329 330 329 328 327 323 323 327 329 326 326 327 326 324 322 323 327 328 326 326 325 325 327 328 324 322 323
298 298 298 298 299 299 298 298 298 298 298 298 297 297 298 299 298 298 298 298 296 295 297 299 300 301 304 305 304 303 303 304 307 311 309 307 307 306 306 309 312 315 318 319 314 313 318 321 320 318 316 316 318 319 319 321 326 330 329 327 328 329 329 329 328 325 324 327 328 325 325 326 325 323 322 321 323 325 327 327 322 315 315 318 317 315 316
298 298 298 299 299 298 298 298 298 298 298 298 298 298 298 298 298 297 297 297 296 295 296 299 301 303 305 306 305 304 305 308 314 315 312 310 309 308 310 315 315 312 313 314 313 314 316 317 316 316 316 315 316 317 318 321 327 330 329 327 327 329 328 327 327 326 326 328 327 327 329 330 325 322 322 322 322 322 322 322 318 315 319 326 325 322 321
297 297 298 299 298 297 298 298 298 299 299 298 298 298 298 299 300 299 298 297 296 296 297 300 303 305 305 306 309 309 306 307 312 315 314 313 310 307 310 316 315 309 309 312 314 314 313 314 317 319 318 315 313 313 316 322 327 327 326 326 327 326 325 323 323 325 327 328 327 326 329 329 323 318 320 325 324 320 317 319 322 324 328 332 330 325 324
297 297 298 298 298 297 298 298 298 298 297 297 298 299 298 298 298 300 301 300 298 299 301 301 301 303 305 307 312 311 306 305 310 313 312 312 310 309 312 312 310 310 310 311 313 312 311 313 317 319 318 314 313 316 321 325 325 324 324 325 325 323 322 322 322 322 322 323 324 325 325 325 323 321 323 326 326 324 324 325 327 327 327 327 325 321 323
297 298 298 298 298 297 298 299 299 299 298 297 298 297 296 297 298 300 302 301 299 302 305 303 301 303 305 308 310 308 305 308 311 312 312 311 310 315 317 312 312 315 313 310 312 313 311 312 313 314 314 313 316 323 327 324 323 326 327 327 326 323 322 323 324 321 319 319 322 325 324 323 324 324 324 322 322 325 327 327 327 327 326 324 323 321 321
297 298 298 298 297 298 299 300 299 299 298 296 296 296 297 299 300 300 300 300 300 301 303 303 304 304 304 306 308 307 305 307 309 311 315 314 310 313 313 309 310 314 310 308 314 315 313 314 313 310 312 316 317 320 321 320 322 328 328 328 328 325 323 324 324 321 318 317 319 323 323 323 324 324 323 323 324 326 326 324 322 323 323 323 324 322 318
298 298 297 297 298 301 303 301 298 297 296 294 295 298 300 300 300 301 300 300 301 302 302 302 303 303 302 303 305 304 304 307 308 310 315 315 310 311 312 307 306 308 306 308 315 314 311 314 313 308 313 322 319 314 315 317 319 321 323 327 329 327 325 323 322 320 319 319 318 320 321 321 320 321 320 321 322 320 318 316 315 315 321 325 322 316 314
298 297 296 297 298 300 301 299 296 295 295 295 298 301 301 300 300 301 301 301 302 303 303 302 302 302 302 303 303 301 301 303 305 308 313 313 310 311 311 306 306 307 305 309 315 312 309 312 312 307 313 324 320 312 313 317 317 318 322 326 326 324 322 321 319 320 324 326 325 327 326 323 322 322 321 320 319 315 314 316 315 313 315 318 314 311 314
297 296 295 296 297 297 297 295 294 295 297 299 300 301 301 301 302 302 302 303 304 304 304 304 304 302 300 301 303 302 300 301 305 309 312 312 311 310 307 305 307 306 304 309 317 315 310 310 310 307 315 326 324 315 314 317 318 318 320 322 322 321 320 320 318 318 322 325 323 323 324 323 323 323 320 319 320 318 317 319 317 310 307 309 309 308 311
297 295 295 296 296 295 295 295 295 296 299 300 301 301 302 302 303 302 302 303 305 306 305 305 306 307 304 302 302 302 301 303 307 309 310 312 313 308 305 308 308 303 302 311 318 316 310 307 307 311 322 328 324 317 316 317 319 318 316 318 321 321 320 320 318 315 317 323 322 318 316 318 318 317 313 314 318 319 318 319 316 308 303 306 309 308 307
297 296 296 295 294 294 295 296 297 298 300 301 302 302 303 303 303 303 303 304 306 307 306 306 308 313 311 305 302 303 304 304 306 306 307 312 313 309 307 309 307 303 307 315 315 310 306 304 306 316 328 326 319 317 319 319 319 318 317 319 323 322 320 322 319 312 312 319 324 319 313 312 312 310 307 308 311 311 311 314 313 307 304 306 308 308 307
298 296 295 295 295 295 296 297 298 299 301 302 302 301 302 303 304 303 304 306 307 307 307 308 308 309 309 306 306 308 307 305 306 307 308 310 312 309 306 306 306 307 313 316 310 306 306 307 310 321 327 320 314 316 319 318 318 319 317 317 319 316 313 317 318 312 307 310 314 312 308 307 307 307 305 305 308 308 307 307 308 307 306 308 309 308 308
296 295 294 296 297 297 298 300 299 298 300 302 301 301 303 305 306 304 304 308 309 306 305 306 306 306 309 310 310 309 308 306 306 307 307 308 309 307 304 307 313 314 311 309 307 306 308 311 317 322 320 314 313 315 317 317 319 319 316 314 313 312 311 314 316 314 311 309 307 307 306 304 304 305 305 306 309 310 307 304 305 307 308 309 308 307 307
295 295 295 297 299 298 299 301 300 299 300 302 303 303 304 305 306 305 305 306 306 304 303 304 303 305 311 313 309 308 309 308 306 307 308 308 307 306 306 312 317 313 306 306 308 306 306 313 321 322 316 312 314 316 317 318 319 318 317 314 314 314 316 316 316 317 318 314 309 309 309 306 304 305 306 306 307 309 308 306 307 308 308 308 307 307 306
296 296 295 297 299 299 299 301 301 301 301 302 302 302 302 302 302 302 302 303 303 303 303 304 303 305 310 312 308 307 309 308 306 307 308 306 305 307 309 309 309 307 305 306 308 308 311 319 323 318 314 313 315 316 317 316 315 316 317 316 316 316 316 316 317 318 316 311 307 307 308 305 304 306 307 306 307 309 309 308 308 309 308 307 307 306 306
296 295 294 296 298 298 299 301 302 301 300 300 300 300 299 299 300 300 300 301 303 303 303 304 305 306 308 309 307 308 309 308 306 308 308 305 305 309 310 306 305 307 306 305 308 316 323 326 321 316 315 314 314 316 316 314 314 316 316 316 318 318 316 316 319 318 312 308 309 310 307 304 304 306 306 306 307 308 309 308 308 308 308 308 307 307 307
296 295 295 297 299 299 299 300 300 300 299 299 299 298 296 297 298 299 299 300 303 304 303 304 306 307 308 307 308 309 310 308 307 308 308 304 304 307 307 305 307 309 309 310 317 325 327 323 318 316 313 311 313 316 317 315 316 317 316 316 318 319 317 317 319 315 309 308 311 310 306 304 304 305 306 306 307 307 308 309 308 308 308 308 307 306 306
295 295 295 296 297 298 299 298 297 298 299 298 297 296 296 296 296 296 297 300 303 303 302 302 305 306 306 307 308 310 310 309 308 308 306 304 304 306 306 306 307 307 309 315 322 323 318 312 311 310 310 311 313 315 316 315 315 316 317 318 318 317 318 319 316 308 304 305 306 305 303 304 305 305 305 306 307 308 308 309 308 307 308 308 307 306 306
294 295 295 295 296 298 299 298 297 299 300 299 297 296 296 296 295 296 298 300 302 304 304 305 307 307 307 306 307 308 309 309 309 307 306 305 306 307 306 305 306 307 311 314 315 313 310 308 306 308 311 314 314 313 314 315 315 315 315 315 312 310 311 312 309 304 302 304 305 305 304 305 305 305 306 308 309 308 308 308 308 307 308 308 307 306 306
294 295 296 296 296 297 298 297 297 298 298 297 296 295 295 295 296 297 297 298 301 305 306 305 305 306 307 308 308 307 306 307 308 308 307 308 308 307 306 307 309 312 314 314 311 309 309 307 307 309 312 314 315 315 315 314 314 315 314 311 307 305 305 305 304 303 303 305 305 305 305 305 306 307 308 308 308 308 308 308 308 307 307 307 307 307 307
294 295 296 296 296 296 295 295 296 296 296 295 295 295 295 296 296 296 296 298 301 304 303 302 302 303 305 307 307 306 305 306 308 309 310 311 309 307 308 311 312 312 312 312 310 309 308 307 308 310 312 312 314 316 315 314 314 315 313 309 305 304 304 303 303 303 304 304 304 305 306 306 306 307 307 307 308 310 310 309 308 307 307 307 307 307 306
Wind_Speed
23 25 26 26 28 28 29 30 30 34 36 33 28 17 5 2 3 5 5 6 10 5 1 3 2 3 4 3 6 6 5 5 5 4 4 4 3 3 3 4 4 3 4 3 2 1 1 2 3 3 4 5 7 7 7 8 6 4 3 3 3 3 2 2 4 3 3 3 1 6 10 8 4 4 3 4 5 5 5 5 4 4 4 3 2 2 5
23 24 25 26 27 28 29 30 31 34 35 33 25 10 2 3 4 4 3 6 8 2 2 2 2 4 4 6 7 6 4 6 6 5 3 3 2 3 4 3 3 3 3 2 1 1 1 2 4 5 4 5 9 10 11 11 8 5 4 3 5 4 2 0 2 1 2 2 4 5 6 7 4 3 4 5 6 7 4 2 3 3 4 5 5 3 6
23 23 24 26 26 27 28 29 32 34 34 31 19 5 3 4 3 2 2 5 5 1 1 1 3 4 5 6 7 5 4 5 6 5 4 4 4 3 3 2 1 3 2 2 3 3 3 3 4 4 4 4 5 8 14 14 10 8 7 3 4 4 2 2 2 3 5 5 5 4 5 6 4 4 7 6 5 8 5 2 3 2 4 5 6 5 6
24 23 24 25 26 27 28 29 32 35 33 28 17 5 3 2 1 2 2 3 3 2 2 1 2 4 4 5 4 3 3 3 3 5 4 3 4 3 3 3 1 1 2 3 4 4 6 6 4 3 3 4 3 7 14 14 11 12 11 4 3 1 1 3 5 6 6 7 6 5 4 6 5 6 8 6 4 6 6 4 4 4 3 3 4 6 4
24 24 24 25 25 26 28 28 31 35 32 25 14 4 2 2 1 2 4 1 2 2 2 2 2 3 2 2 3 4 5 4 1 3 2 3 4 3 2 2 1 2 2 2 3 3 5 7 5 4 5 4 4 5 11 12 12 13 10 3 2 2 4 4 5 6 8 8 6 4 6 6 6 7 7 5 5 7 7 5 5 5 5 3 7 5 7
23 24 25 25 25 25 27 27 30 34 32 22 11 2 1 2 1 2 4 3 2 3 3 4 6 4 2 2 3 4 6 6 3 2 2 3 4 3 1 2 4 5 5 3 2 3 2 2 3 4 3 4 5 1 7 6 8 8 3 1 3 1 5 4 3 5 5 5 6 5 7 6 7 10 9 6 7 8 7 6 7 7 6 6 6 8 10
22 23 24 25 24 24 26 26 28 32 30 22 13 4 2 3 2 2 3 3 4 6 9 10 9 6 2 2 3 4 5 7 5 1 0 2 3 2 0 4 5 6 5 3 1 2 1 1 3 2 2 4 4 2 3 2 4 6 2 1 3 2 4 4 2 5 4 3 4 6 9 6 6 8 9 9 9 9 8 5 5 6 4 5 8 10 9
22 22 23 25 24 24 25 25 26 30 29 22 12 6 4 3 3 3 3 4 6 6 7 8 7 4 1 2 3 3 4 6 6 2 2 2 2 3 2 5 5 4 4 3 3 4 4 3 5 3 1 4 2 2 2 3 6 6 4 3 2 2 4 2 1 3 4 6 3 5 9 8 6 4 4 8 8 5 5 3 3 5 2 1 8 8 6
22 22 22 23 24 23 23 24 25 26 27 19 8 6 7 5 7 7 5 5 5 4 5 5 5 3 2 3 5 4 4 5 6 4 4 4 2 3 3 5 5 2 2 2 5 7 7 8 10 7 4 3 3 1 2 2 7 5 4 3 2 2 2 2 4 2 5 5 3 5 8 9 7 3 3 7 7 4 3 3 4 6 5 5 8 4 5
22 21 21 22 23 23 22 22 23 24 24 18 7 5 9 8 7 6 5 4 4 4 5 4 3 3 3 6 9 7 6 6 4 3 3 3 3 3 2 5 4 4 6 7 8 7 7 9 10 7 6 7 6 4 3 1 4 5 4 1 1 3 0 2 2 1 5 5 3 4 8 8 3 3 5 6 4 2 1 2 2 6 7 7 5 4 5
22 21 21 21 22 22 21 20 21 21 21 19 11 7 10 9 6 4 3 3 3 3 4 4 3 3 6 10 12 10 11 10 4 1 2 3 1 1 2 5 4 4 6 9 8 6 8 10 8 5 6 8 7 2 3 3 2 5 5 1 0 2 3 1 0 1 4 7 5 4 6 4 5 6 5 5 3 4 5 2 4 6 5 4 3 3 6
22 21 21 21 21 22 21 19 20 19 19 19 15 11 13 13 8 4 2 3 4 3 3 4 3 5 9 11 11 10 11 12 7 4 5 4 1 1 4 3 2 4 7 8 6 6 7 6 2 3 4 6 5 1 2 5 5 5 5 4 2 3 3 0 0 1 2 4 5 5 3 5 7 6 4 5 4 6 7 2 1 4 4 4 5 5 9
22 20 20 20 19 20 20 18 18 18 17 18 17 15 16 15 7 3 2 3 5 4 5 7 7 7 9 10 10 10 10 11 9 5 4 4 2 3 5 4 5 6 8 9 8 5 4 4 3 4 2 1 1 2 3 6 5 4 3 4 5 3 1 1 1 1 1 3 5 3 4 6 5 5 3 2 1 4 7 3 3 2 4 6 6 7 9
21 20 19 19 18 19 20 18 17 17 17 18 18 17 17 13 5 3 3 3 4 5 6 8 8 8 10 11 10 10 10 11 10 7 3 3 4 5 6 5 6 8 8 7 5 3 2 3 4 5 4 3 3 2 2 2 4 7 6 3 3 4 3 1 1 0 3 3 1 1 1 2 2 2 1 2 1 2 6 4 2 3 4 5 5 5 6
20 19 18 19 18 17 18 18 16 17 17 17 19 19 16 12 8 5 3 2 5 6 3 2 6 10 12 11 8 7 8 9 9 7 5 3 3 5 6 7 7 8 6 2 2 3 2 2 4 4 3 2 2 2 1 0 1 3 6 6 3 2 2 3 1 1 3 4 2 3 3 1 3 5 6 4 3 3 5 5 1 5 4 3 5 6 7
19 19 18 18 18 17 17 17 16 16 17 17 19 20 16 11 9 7 4 2 4 4 3 2 5 7 8 7 5 4 4 5 6 6 6 5 6 6 7 7 7 6 3 2 3 3 3 3 3 3 2 2 3 4 3 2 2 2 1 5 4 2 1 4 4 2 2 4 3 1 2 2 5 8 9 7 4 2 3 5 2 6 4 2 6 9 8
18 18 17 17 17 17 16 16 16 16 16 16 19 20 15 11 10 9 4 2 3 5 6 5 3 3 4 5 4 3 2 4 4 3 4 6 7 8 10 10 8 6 6 5 3 4 5 3 2 3 1 1 2 3 1 2 4 3 3 5 5 4 4 3 3 2 2 4 2 1 2 2 4 7 7 6 2 4 6 2 6 7 5 2 7 11 9
17 17 17 16 16 17 15 15 17 17 15 16 18 18 14 10 10 9 4 2 4 5 5 2 2 2 3 3 4 3 2 3 3 2 4 5 4 6 9 8 6 6 6 4 3 4 5 3 2 3 1 3 1 3 1 1 2 3 4 4 3 2 2 2 2 1 2 3 2 1 2 2 4 5 6 4 1 6 5 5 7 5 3 3 6 10 9
17 16 17 16 15 17 16 14 16 16 15 17 18 16 14 9 7 9 6 2 3 4 6 5 5 5 5 4 4 4 3 3 3 2 4 4 4 8 8 4 2 4 3 3 3 3 3 3 1 2 1 3 2 2 1 0 0 1 2 3 3 2 1 1 2 2 1 2 3 1 3 3 3 5 6 2 2 2 3 6 4 2 3 3 4 8 9
17 16 17 16 16 16 16 15 15 15 14 16 16 16 17 11 5 8 9 3 3 6 10 10 7 9 7 3 4 5 4 3 3 2 2 4 6 8 6 2 2 4 3 4 4 2 2 2 2 1 2 2 2 2 1 2 3 2 2 2 3 3 2 1 2 2 1 3 3 2 2 3 3 4 4 3 2 4 5 3 1 2 4 3 3 7 8
17 17 17 16 16 16 16 15 15 15 14 14 15 16 17 12 9 11 12 7 4 4 6 6 6 11 13 13 14 14 9 8 7 4 2 4 5 4 3 2 2 2 2 2 2 2 1 1 2 1 1 2 2 2 2 2 4 4 2 2 1 2 2 2 2 2 3 3 0 2 4 5 3 0 2 2 3 5 5 2 1 2 3 3 4 7 8
16 16 17 17 16 16 17 16 15 15 15 14 15 15 14 14 15 16 15 10 8 10 15 19 22 28 31 31 29 26 22 21 19 13 5 3 4 1 2 3 3 1 1 1 1 2 2 1 1 1 1 2 2 1 1 2 1 4 3 2 2 1 3 4 3 2 2 4 5 5 4 5 3 2 5 4 3 2 5 5 2 3 3 4 4 6 8
16 16 17 17 17 16 16 16 15 15 15 15 14 14 15 18 19 18 15 11 9 13 22 26 24 25 25 20 16 17 19 22 26 22 14 6 3 3 3 3 2 1 1 1 1 0 1 1 0 1 0 1 1 2 1 1 1 2 3 1 0 2 2 3 3 1 0 1 2 1 3 4 5 4 4 3 2 2 2 3 1 2 2 3 4 5 6
16 17 17 17 17 17 16 16 16 16 16 16 14 15 18 19 18 15 11 6 3 6 10 10 7 8 9 9 14 17 17 18 20 21 19 15 6 3 3 4 2 1 2 1 2 2 1 1 0 1 1 0 0 2 1 1 1 0 1 2 3 2 1 3 3 2 2 1 2 3 3 4 5 5 4 1 3 3 2 3 1 3 2 3 4 5 6
17 17 16 17 18 17 16 16 17 17 18 17 16 17 19 19 16 13 8 4 2 3 4 4 6 8 10 17 22 21 16 14 14 16 19 21 17 9 6 3 2 0 2 2 1 2 2 1 1 2 1 1 1 1 0 2 1 1 1 2 3 1 2 3 3 2 2 3 6 5 4 5 5 4 3 3 4 4 4 3 2 3 4 4 4 5 7
19 18 17 17 17 16 16 16 17 18 18 18 18 19 21 22 21 16 10 6 3 3 3 4 8 11 16 23 25 22 18 17 16 16 18 22 25 24 15 5 2 2 0 2 2 2 1 0 1 2 1 1 0 1 1 3 2 1 1 3 3 1 2 2 2 3 1 2 4 3 3 5 5 4 4 4 4 4 5 5 4 5 6 5 6 5 3
19 19 18 17 17 16 17 17 17 19 19 18 20 22 24 25 23 16 13 10 3 1 3 3 6 13 19 21 23 25 25 22 19 17 15 16 22 27 19 7 4 3 1 2 1 1 2 2 1 0 1 1 0 1 1 2 1 1 3 4 2 2 1 2 4 3 0 4 4 3 2 2 3 3 5 6 6 2 6 6 6 5 4 4 6 7 5
20 19 18 18 17 17 17 17 18 19 18 18 22 24 20 15 11 7 11 13 7 2 3 3 7 14 16 16 21 28 27 21 18 17 17 14 13 18 15 7 5 3 2 1 1 0 2 1 1 1 1 1 0 1 2 2 2 2 4 4 1 2 3 3 4 4 4 6 5 4 4 2 4 3 4 6 4 4 6 5 4 3 1 2 5 6 5
18 18 18 18 18 18 18 17 18 18 17 19 22 19 10 4 4 6 8 9 6 3 4 4 6 8 8 13 23 28 25 21 18 16 16 12 4 9 10 7 6 4 3 3 2 1 2 3 2 2 2 2 2 1 1 1 1 3 5 5 3 3 3 4 5 4 2 4 5 5 3 2 2 1 3 5 4 5 6 5 4 2 2 2 3 6 6
17 18 19 18 18 19 18 17 17 16 16 18 18 11 4 2 4 11 14 9 3 3 2 2 4 4 5 10 14 16 20 24 22 15 10 7 3 4 6 6 5 3 3 2 2 2 2 2 1 2 3 2 3 2 1 2 2 5 5 4 3 3 3 4 5 3 1 2 4 5 3 2 1 2 3 4 4 4 5 5 5 3 2 3 3 4 5
17 18 20 19 18 18 18 18 17 16 17 15 8 2 1 1 4 13 13 3 10 7 1 2 3 4 6 5 5 9 17 20 16 10 7 5 4 4 5 5 3 2 3 2 2 2 2 2 1 2 2 2 4 2 2 3 2 5 5 4 4 3 3 4 3 2 2 2 2 3 2 2 3 2 3 5 6 4 5 4 5 4 4 4 4 4 4
18 20 21 20 19 19 20 19 18 17 18 15 10 8 9 9 8 11 12 13 14 7 1 2 3 3 3 4 6 11 14 12 7 5 4 3 2 1 2 2 1 2 4 3 1 1 2 2 2 1 1 2 3 2 2 3 2 5 6 4 4 3 3 4 3 1 2 4 5 5 4 4 3 1 1 2 4 4 5 4 5 5 6 5 6 6 5
19 20 20 19 20 21 21 20 20 20 19 17 17 17 13 10 9 12 15 15 11 3 3 0 2 3 3 5 7 9 7 5 4 5 3 2 1 0 0 2 1 1 2 2 1 2 1 2 2 1 2 1 3 3 1 2 5 6 5 4 3 2 2 2 2 1 2 3 3 3 3 4 3 2 1 1 4 4 5 4 4 6 7 6 6 6 6
19 19 19 19 21 21 22 22 21 17 13 11 12 10 6 9 9 6 7 8 4 2 1 1 0 3 3 3 5 5 5 4 4 3 3 3 1 1 1 3 3 1 1 1 1 1 1 1 2 2 1 1 2 1 2 5 6 5 4 4 2 1 3 2 0 1 3 3 1 2 4 4 2 3 3 5 5 5 5 5 5 6 6 5 4 3 3
19 18 18 19 20 21 21 19 13 7 5 6 6 5 9 13 13 8 5 6 3 1 1 0 1 3 3 3 4 5 5 5 3 2 2 3 3 1 1 1 2 1 2 1 1 0 1 2 3 2 1 1 0 2 4 5 6 5 3 3 2 4 4 2 3 4 3 0 4 4 3 5 5 3 3 5 6 5 5 6 5 5 5 4 3 2 1
17 17 18 19 19 17 14 9 4 3 3 3 7 13 17 15 10 6 7 8 4 2 1 0 1 3 1 1 4 5 5 5 4 3 2 2 3 2 2 3 0 3 1 2 1 1 2 1 2 0 2 1 2 4 5 5 6 5 5 6 6 5 4 4 5 4 0 4 5 4 4 6 5 2 2 4 5 4 5 6 6 5 5 4 3 3 1
16 17 18 17 13 8 5 3 4 3 4 11 16 17 13 6 2 2 3 5 5 5 3 0 3 4 2 2 4 3 5 4 3 4 3 2 2 3 2 3 1 3 1 2 1 2 2 0 2 1 2 3 4 6 6 5 6 6 5 5 6 5 3 2 5 6 5 6 5 5 4 4 3 2 4 5 4 5 6 4 4 2 3 1 1 2 2
16 16 14 10 5 3 1 1 2 5 14 19 17 9 2 2 2 0 0 1 3 3 2 1 4 3 2 3 4 2 3 3 3 4 3 2 2 3 1 1 1 1 1 2 4 2 1 3 3 1 4 5 3 5 5 4 5 5 4 5 5 5 5 5 6 8 7 3 1 1 2 2 1 1 4 4 4 4 4 2 2 0 2 2 3 4 4
13 11 7 3 1 1 2 4 9 15 18 15 7 2 1 0 1 0 1 1 2 2 2 2 4 3 4 5 5 3 2 2 2 3 3 2 1 2 1 0 1 1 2 2 4 0 1 2 2 1 3 5 4 4 4 2 1 3 4 4 4 5 5 6 5 6 7 5 5 5 5 4 4 4 4 4 4 4 3 2 3 3 2 2 3 4 4
9 5 2 1 2 5 10 16 18 15 9 3 0 1 0 1 1 1 1 1 1 2 2 3 3 3 5 6 6 4 3 4 3 2 3 3 2 0 1 1 1 1 1 3 3 1 2 0 1 1 2 4 4 4 4 3 1 1 2 0 4 5 5 5 3 3 4 3 2 3 4 4 5 6 6 5 5 5 4 4 4 4 3 5 5 5 4
4 2 2 4 8 15 20 20 14 5 1 1 1 1 0 1 2 1 1 1 2 3 2 2 2 3 3 5 5 4 4 4 3 3 1 3 2 0 0 2 1 2 0 4 3 2 3 1 1 2 4 5 5 4 2 2 2 1 3 3 4 5 5 4 4 3 4 5 4 3 4 5 6 6 6 5 5 5 4 4 4 5 5 6 6 6 6
6 7 10 13 15 16 14 9 3 1 1 1 1 0 1 2 2 1 1 2 2 2 2 2 3 3 3 4 4 4 4 3 2 2 1 3 3 1 1 1 2 2 2 5 1 3 3 0 2 4 5 6 5 4 4 4 3 1 2 2 4 5 5 6 5 4 3 5 6 4 5 6 7 7 8 8 7 5 4 5 5 5 6 7 7 7 7
11 12 11 10 8 5 2 1 0 0 1 1 0 1 2 2 1 1 2 2 1 1 2 2 2 2 1 1 2 3 3 3 1 1 1 3 2 1 2 1 1 1 3 1 3 3 1 2 3 5 6 4 4 5 4 3 3 3 3 3 3 5 5 6 6 5 4 6 7 7 7 8 8 8 11 12 10 6 4 4 5 7 8 8 7 7 6
9 6 3 2 1 0 0 1 1 1 1 1 1 1 1 2 2 2 2 2 2 2 3 3 3 3 3 2 1 2 3 1 0 0 1 2 0 2 1 1 3 3 1 1 2 0 2 4 5 5 5 3 3 5 4 3 3 5 4 4 4 6 6 6 6 6 6 6 7 8 9 9 9 9 10 11 11 9 6 4 5 7 8 7 7 7 6
4 1 1 2 2 1 0 1 1 1 2 2 2 2 2 3 3 3 3 3 2 3 5 5 4 3 4 3 1 1 2 1 0 1 1 1 0 0 1 2 2 0 1 1 1 0 2 3 4 5 4 4 5 5 5 5 4 5 5 4 3 4 5 6 6 6 5 5 6 6 7 8 7 7 8 9 11 11 9 7 7 8 8 7 7 6 4
0 0 2 1 2 2 0 0 1 1 1 1 2 3 3 3 4 4 4 3 2 4 6 6 5 4 4 2 0 1 1 1 0 1 0 1 0 2 3 2 0 1 1 1 1 1 4 5 5 5 5 6 6 5 5 4 4 4 6 6 4 4 5 5 6 5 5 5 6 6 6 6 6 7 7 8 9 9 9 9 9 9 7 6 6 6 4
0 0 2 1 1 2 1 2 3 2 2 2 2 3 3 4 4 4 3 3 4 4 5 5 4 4 3 1 0 1 2 0 0 2 1 1 1 2 1 1 1 1 1 2 3 4 5 5 5 5 5 5 6 5 5 4 4 5 6 6 5 5 4 4 5 6 6 6 6 5 5 6 7 7 8 7 7 8 9 9 9 8 6 6 6 6 5
0 0 1 1 1 2 2 2 2 2 2 2 2 3 3 3 3 4 4 4 3 4 5 5 3 2 2 1 0 1 2 1 1 1 1 0 1 1 2 1 2 2 2 4 5 5 4 4 5 5 4 4 6 6 6 5 6 6 5 5 5 5 5 5 5 6 7 8 6 5 6 7 9 9 8 6 6 7 8 9 9 8 6 7 7 8 6
1 0 1 1 1 2 3 2 2 3 3 3 3 3 3 3 4 5 5 4 4 5 5 3 2 2 2 1 1 0 1 1 0 1 1 2 2 1 1 1 2 2 2 3 4 4 4 5 5 5 4 4 5 6 6 6 6 6 6 6 6 6 6 6 5 6 8 9 8 7 7 8 8 7 6 6 6 8 9 9 8 7 7 7 7 8 7
1 0 1 1 2 3 3 1 2 3 4 4 3 4 4 5 5 5 4 4 4 5 4 2 0 0 1 0 1 1 2 1 1 0 2 3 2 1 1 1 2 3 4 4 4 4 5 5 5 5 5 5 5 5 6 6 5 5 6 5 5 6 6 6 5 5 7 9 10 10 9 9 9 9 8 7 8 9 9 8 7 7 7 7 7 7 7
1 1 2 3 3 3 2 1 1 3 4 4 4 4 4 3 4 4 5 5 4 3 3 3 2 1 1 0 0 1 1 0 1 1 2 3 1 1 2 2 3 4 4 4 4 5 5 5 4 4 5 5 6 6 6 6 6 6 5 5 5 6 5 5 6 6 7 10 12 12 11 12 12 12 11 11 11 10 7 6 7 8 8 8 8 8 7
2 2 2 3 3 3 3 2 2 3 4 4 4 3 3 3 4 6 7 6 3 1 2 2 1 1 1 1 1 1 1 0 0 1 2 2 1 0 2 3 4 3 4 5 5 4 4 4 2 1 3 4 6 6 6 5 5 5 5 5 6 6 6 6 7 8 8 10 12 13 13 12 11 9 9 9 9 8 6 6 8 8 8 8 9 9 8
Wind_Direction
349 348 347 347 347 347 348 349 348 350 355 355 347 336 316 295 295 297 292 194 155 112 303 208 171 236 250 281 265 260 270 268 279 278 224 212 229 217 216 227 218 214 218 228 276 46 112 238 228 235 261 240 228 220 178 172 180 166 188 202 169 191 226 285 292 283 230 249 94 137 149 138 151 209 173 151 172 172 158 168 183 178 177 163 132 209 257
351 350 349 349 349 348 349 349 348 350 356 354 344 331 299 298 279 290 293 182 155 116 281 240 262 260 270 284 270 260 255 251 262 273 243 213 220 224 230 223 199 217 238 238 272 352 56 256 243 230 240 244 230 208 178 179 188 188 197 172 170 203 206 163 299 23 127 145 95 117 156 159 177 206 180 175 163 147 147 142 138 182 204 163 145 208 249
353 352 351 350 350 350 349 350 349 350 354 355 347 319 274 305 257 249 264 179 162 175 235 254 288 291 295 284 282 286 262 242 238 239 244 237 233 250 262 251 205 215 225 229 245 235 207 230 250 224 223 258 243 195 181 184 188 201 211 154 135 195 182 141 161 144 161 177 165 173 177 165 180 193 188 195 151 138 164 164 126 204 226 154 147 201 253
354 354 353 352 352 351 351 351 350 351 355 356 348 309 268 337 326 302 298 175 177 227 209 195 262 292 311 300 293 287 277 272 224 221 244 236 227 256 270 262 263 180 188 219 228 217 209 220 256 271 247 271 260 184 180 184 188 203 213 195 86 82 228 186 174 176 186 191 203 212 165 151 175 178 177 190 151 129 131 120 149 194 174 167 211 197 207
355 355 354 354 354 353 353 353 353 353 356 358 349 299 234 22 333 311 335 316 239 250 186 166 252 276 290 306 310 286 281 301 277 210 227 205 206 226 238 230 187 156 178 227 236 237 219 210 234 271 253 263 279 196 173 179 194 201 208 213 81 32 298 248 188 206 212 197 203 194 140 147 168 156 159 180 156 128 121 146 188 163 127 225 257 189 172
355 356 355 355 355 355 355 355 355 356 359 6 10 344 303 10 269 283 347 329 299 321 302 290 304 300 210 223 302 295 292 312 323 246 246 229 205 199 286 267 230 220 215 205 229 270 275 209 237 267 261 303 326 186 155 167 186 178 160 72 127 176 281 254 212 262 251 214 215 181 135 140 159 150 155 167 160 156 161 191 196 154 149 218 223 180 186
353 355 357 356 356 357 356 357 358 358 2 16 33 31 345 353 303 310 350 311 283 287 283 291 309 312 258 250 281 276 295 316 314 248 249 301 246 175 267 276 253 245 236 197 205 254 327 318 279 280 315 321 340 101 132 112 124 138 144 216 149 164 268 245 251 307 314 307 253 175 137 132 150 154 160 161 167 175 173 189 184 147 159 206 174 177 207
351 354 358 357 357 358 357 358 1 1 4 17 37 39 19 5 314 321 327 293 281 275 284 304 315 307 289 309 301 272 283 308 315 276 189 282 283 157 212 287 290 263 232 187 203 220 188 206 245 236 354 322 329 119 166 134 116 133 183 216 177 187 252 253 49 352 315 325 337 130 133 135 138 135 141 143 146 150 142 161 155 119 81 163 146 164 237
350 353 356 357 358 359 358 360 2 4 8 14 24 23 8 334 295 304 311 300 298 300 314 322 317 326 357 334 324 311 283 303 322 299 221 216 233 190 225 300 311 283 274 249 236 232 203 204 228 225 212 253 265 272 274 120 117 149 195 205 176 186 252 317 49 32 289 308 8 96 109 108 112 104 118 134 132 129 154 197 180 145 140 119 113 144 238
348 351 352 354 358 359 358 0 2 5 11 13 7 352 353 332 297 299 300 286 297 316 324 327 327 335 339 328 328 323 307 310 318 301 268 245 238 235 283 333 336 330 322 291 258 247 227 227 239 228 211 229 235 238 272 343 121 163 189 186 177 159 112 342 40 38 281 298 340 92 96 96 129 219 191 162 142 122 160 262 226 165 149 132 141 200 207
347 349 349 351 357 358 358 359 1 4 9 9 358 335 341 337 312 300 295 275 286 322 325 330 350 329 321 331 331 324 325 330 327 201 284 300 264 191 294 322 323 302 274 256 251 261 255 252 250 217 206 236 247 256 303 307 236 184 166 117 263 97 75 10 12 121 268 295 333 54 97 135 228 237 194 180 188 165 165 229 227 192 164 137 159 163 133
346 347 347 349 354 357 358 357 359 3 5 2 353 336 338 340 320 296 314 296 298 329 328 305 301 303 311 324 325 315 320 323 309 247 240 281 341 183 235 259 265 255 253 256 284 306 287 281 284 144 194 243 253 265 291 274 256 210 163 131 109 56 51 312 39 111 246 309 25 70 144 216 244 262 234 216 214 172 152 109 261 199 172 131 129 144 154
347 345 346 349 352 355 357 357 356 359 0 358 351 339 341 345 329 277 324 304 290 317 322 297 286 289 304 320 323 315 313 315 313 291 240 247 255 235 243 222 203 242 274 291 311 329 325 330 24 98 112 278 210 156 216 233 215 189 156 113 118 122 134 250 21 136 216 24 64 128 220 250 280 305 275 203 143 136 134 85 350 246 190 162 167 184 173
347 344 344 347 349 353 355 356 355 355 356 355 349 342 344 351 343 297 319 306 282 296 299 296 306 318 325 329 329 322 326 337 339 335 304 248 232 239 250 236 230 257 281 294 317 6 35 2 31 75 69 40 69 123 232 236 179 178 189 180 145 149 158 140 346 202 133 96 100 214 295 325 331 326 261 188 177 163 154 147 299 267 210 181 181 185 153
344 342 341 343 346 352 354 354 353 353 353 352 347 344 348 354 346 316 293 291 302 297 266 273 328 333 326 323 327 331 337 347 343 328 309 274 249 249 250 251 262 274 273 263 21 31 43 58 67 83 93 94 129 173 207 61 116 189 189 181 172 204 194 154 130 353 93 94 53 18 34 346 255 261 271 275 270 235 158 125 301 280 252 189 163 154 144
340 338 338 341 344 349 352 352 353 351 350 350 347 344 349 359 354 329 294 286 301 282 258 293 315 317 309 303 313 330 329 331 332 323 322 327 320 309 300 294 297 308 336 41 64 47 46 75 101 115 139 162 167 178 183 129 69 29 116 132 106 34 13 109 97 33 44 93 97 101 136 207 240 255 280 305 301 243 122 100 284 277 276 213 154 151 154
336 335 336 339 341 344 348 350 350 350 350 350 345 340 343 2 4 343 309 267 284 273 276 296 303 294 301 305 311 312 294 316 334 331 320 324 321 319 325 325 325 348 20 33 40 42 48 60 71 66 46 260 151 140 141 86 103 121 124 105 85 46 14 40 65 39 63 93 101 211 196 213 246 257 281 305 341 76 88 127 255 265 269 227 160 155 160
328 331 334 335 338 341 344 345 346 349 351 347 340 335 339 360 11 2 337 268 293 277 255 294 6 295 272 295 307 307 311 323 334 314 295 294 297 321 328 329 334 356 20 37 39 40 46 47 54 64 11 309 24 93 77 44 112 160 151 114 96 68 29 42 104 97 70 90 97 269 254 245 260 279 297 300 35 67 90 198 233 250 264 238 167 157 159
323 327 329 330 333 338 340 340 342 346 349 347 341 335 336 349 13 13 359 290 270 271 269 307 327 274 251 265 271 274 304 306 288 308 321 311 314 323 320 309 330 348 5 39 44 55 53 26 12 97 44 324 347 87 105 39 130 191 147 117 137 155 92 92 131 102 29 86 103 13 283 264 275 303 317 339 98 117 196 223 228 208 245 258 179 164 165
323 323 323 326 329 333 336 336 337 340 344 348 344 331 327 331 350 357 348 310 264 285 283 277 252 230 236 265 265 277 317 306 271 288 310 284 311 337 345 346 346 345 4 34 27 25 49 13 313 73 63 306 307 80 67 319 312 257 190 156 163 160 139 163 192 165 91 58 61 65 237 254 303 333 351 41 109 196 217 233 250 189 207 233 205 185 178
322 319 320 325 326 329 333 332 333 335 337 343 344 330 320 319 322 328 328 310 279 286 286 279 254 249 260 268 266 267 264 248 250 270 277 269 297 353 4 293 298 340 14 41 17 334 10 7 311 356 59 297 325 70 97 353 326 289 232 144 115 154 149 168 216 185 119 99 143 203 214 244 280 291 178 196 220 209 183 157 284 247 201 196 202 201 196
319 318 319 322 322 326 330 328 330 334 331 335 340 329 313 309 312 320 321 298 258 248 265 278 283 280 277 275 271 264 254 246 247 249 249 288 301 269 233 277 289 246 190 87 55 351 344 5 4 19 18 338 349 27 132 108 3 306 310 75 91 228 204 168 163 171 152 174 208 221 236 257 264 220 214 237 278 231 169 155 202 246 211 190 194 203 208
318 318 318 319 319 323 327 326 328 330 328 330 333 324 312 308 309 316 318 295 260 258 266 272 281 284 282 281 280 274 265 255 251 244 232 232 285 273 226 243 286 263 209 155 136 189 273 263 164 84 52 318 16 14 2 66 110 300 315 3 360 259 229 146 123 120 124 180 224 291 313 296 304 298 253 238 32 41 144 133 130 273 226 180 180 192 196
317 316 316 316 316 319 324 325 325 325 324 325 324 316 311 307 305 313 319 299 280 293 278 271 282 282 277 295 308 301 284 261 252 248 235 216 216 307 278 213 199 335 324 264 180 133 110 236 217 82 74 259 66 61 18 342 360 68 331 322 309 279 170 109 87 75 86 105 284 308 305 289 306 323 315 350 45 45 97 109 33 341 27 114 132 132 124
316 315 314 313 313 317 321 323 323 324 322 321 320 315 310 303 299 303 304 285 294 321 312 302 283 274 298 314 308 301 293 276 265 258 239 219 211 229 257 228 168 170 318 309 91 79 42 335 66 74 56 280 294 87 191 271 301 29 24 301 284 291 73 84 82 79 110 223 257 275 284 278 281 295 313 340 358 8 35 63 65 56 65 74 84 103 118
315 315 313 312 313 316 320 322 322 321 320 321 320 315 307 299 294 284 263 250 258 252 264 292 281 292 322 322 308 305 311 303 286 267 246 231 224 228 238 264 269 231 61 53 75 102 120 57 71 84 78 313 61 130 222 258 281 355 305 250 242 347 30 93 114 73 50 244 253 289 328 322 317 326 329 308 300 342 35 52 62 70 72 61 44 43 85
312 312 313 313 313 314 318 321 320 318 320 322 318 313 309 304 297 275 238 221 209 266 273 266 282 305 315 308 300 308 317 313 304 289 269 249 234 229 230 239 254 241 81 52 20 76 87 44 348 205 198 314 8 144 246 274 318 352 279 265 276 41 55 125 108 88 160 232 212 159 137 267 280 314 339 317 300 356 51 48 46 57 75 86 70 50 41
306 309 311 312 312 313 315 317 318 318 321 320 317 319 320 315 307 270 224 213 207 278 296 259 284 305 307 298 302 314 317 314 310 298 286 279 246 220 212 202 206 207 127 109 261 77 105 152 259 197 170 173 220 279 300 324 357 319 262 255 224 160 175 160 139 156 219 239 218 158 138 199 239 256 313 314 318 51 59 37 31 61 134 142 110 97 79
305 307 308 308 310 310 310 312 315 317 319 321 323 329 344 18 70 110 151 175 193 251 289 288 284 291 301 304 307 312 314 315 313 297 287 296 268 191 186 183 190 184 130 120 156 159 184 210 206 198 203 177 161 224 300 360 322 274 247 234 224 201 189 171 160 165 248 252 209 176 161 182 223 283 323 321 342 60 64 30 16 56 168 187 145 133 132
306 304 304 305 306 306 306 308 311 312 315 321 327 336 360 42 96 123 128 117 51 311 277 302 296 285 300 302 298 304 313 318 319 309 295 303 304 203 185 174 176 154 105 118 182 189 217 244 256 267 258 167 137 169 196 159 239 268 252 236 239 246 246 218 184 161 318 263 194 176 179 199 269 326 349 351 359 50 72 35 11 33 118 143 139 143 152
303 300 301 304 303 304 305 306 307 309 309 311 325 19 76 317 142 147 146 77 350 340 274 245 283 297 303 286 269 295 307 308 311 311 300 297 290 242 185 163 166 159 145 172 214 192 191 215 273 293 283 115 116 150 167 148 224 277 273 252 230 223 246 260 231 184 213 208 123 87 51 350 339 357 28 14 3 32 71 40 10 37 91 113 122 134 153
302 299 300 302 302 304 306 304 303 302 296 287 274 257 263 274 253 220 234 285 313 323 227 269 305 312 305 290 286 296 296 291 298 318 308 289 292 239 158 145 196 180 148 137 162 218 206 189 176 238 254 119 110 110 113 130 199 254 260 247 231 236 267 289 312 327 188 163 104 69 13 334 328 194 143 11 7 42 62 34 14 44 70 77 84 95 104
300 297 299 302 304 306 307 305 301 295 286 277 270 269 278 298 293 265 262 276 287 263 171 181 317 281 277 299 304 309 312 308 327 352 339 287 263 138 350 349 17 113 120 118 175 227 226 149 146 226 279 47 98 103 133 202 221 242 255 244 237 271 298 287 319 353 203 187 129 123 195 237 250 220 199 17 25 43 51 34 24 43 54 53 56 77 96
296 298 302 305 307 308 308 307 302 289 271 259 257 264 308 347 342 303 238 226 232 253 242 132 267 275 296 322 314 328 359 353 323 342 337 300 290 131 273 330 15 60 227 222 171 254 298 206 176 202 260 14 73 108 245 255 254 260 269 258 232 78 59 52 15 231 225 217 126 129 180 183 128 68 44 29 21 25 37 40 40 49 51 43 40 70 118
297 303 308 308 309 310 309 306 297 268 224 218 234 280 326 328 325 313 246 207 166 41 302 202 192 273 315 340 301 305 346 344 300 271 269 289 320 55 143 6 16 280 236 217 95 31 272 220 180 192 240 309 95 214 232 248 259 257 239 221 175 117 106 137 214 240 262 180 99 92 93 102 100 80 37 27 21 28 42 35 36 64 69 43 26 39 159
303 311 314 313 312 311 305 292 250 194 189 252 294 315 318 310 303 288 250 233 218 210 233 343 236 220 217 303 279 300 346 342 301 289 288 297 324 352 87 97 302 256 246 63 67 251 257 208 151 201 298 250 206 230 225 213 220 223 213 211 200 171 164 190 187 184 8 47 77 73 68 99 124 136 52 37 19 32 54 35 22 52 63 34 24 40 3
308 316 317 317 318 315 297 251 193 192 287 306 312 315 312 292 246 231 232 229 229 217 187 172 252 224 187 231 260 307 348 331 309 327 328 301 297 316 50 87 240 256 5 36 260 228 245 39 96 116 243 225 222 248 248 210 200 211 222 227 214 188 182 195 156 132 92 53 48 38 46 94 126 68 53 47 18 38 65 45 3 44 92 97 146 118 79
312 318 318 321 334 342 304 230 221 285 304 309 312 312 292 149 119 48 211 194 229 218 168 192 246 230 169 225 249 297 324 310 350 358 320 271 296 316 7 104 219 244 19 285 258 212 91 22 50 142 244 267 271 260 254 229 213 227 245 238 214 182 170 169 148 130 119 104 70 11 68 103 144 58 62 71 62 66 79 59 332 52 134 160 163 138 107
316 322 323 327 322 261 263 294 305 307 307 306 302 260 197 84 54 276 247 217 221 217 187 219 237 199 178 222 258 278 253 258 348 341 283 268 308 308 314 327 277 61 62 292 283 19 75 336 352 360 278 297 301 269 272 290 262 262 266 231 185 157 159 174 173 157 154 174 205 201 177 170 180 166 128 112 97 77 68 55 35 37 61 91 106 108 102
321 321 317 313 267 279 296 306 310 311 312 309 292 100 332 280 192 198 217 216 231 229 202 205 228 210 190 213 253 269 218 192 187 213 241 263 273 249 61 318 251 96 60 279 281 49 99 285 342 355 259 264 259 259 287 315 322 312 325 131 137 135 147 165 170 149 137 137 174 188 169 159 153 147 145 142 127 103 80 65 54 45 51 59 61 67 85
326 325 298 294 293 297 303 309 312 318 61 82 339 7 110 252 252 229 168 193 247 255 220 180 229 265 221 203 225 252 240 214 182 154 194 271 277 115 84 273 269 74 21 254 257 72 84 88 320 265 240 242 238 227 229 234 219 27 28 62 104 107 109 107 85 82 114 113 90 79 93 100 108 119 128 131 122 114 106 86 60 52 61 65 67 78 93
290 294 295 296 296 297 302 309 316 112 94 32 347 245 244 258 262 258 224 224 238 251 231 195 207 236 224 192 193 223 237 229 185 116 164 266 270 185 188 282 19 67 236 246 273 61 69 41 285 266 253 247 231 190 173 192 197 136 51 60 102 106 105 100 83 66 103 122 114 99 94 96 102 115 123 119 111 107 112 108 93 85 87 91 95 99 104
290 291 292 297 301 300 298 299 267 131 65 68 109 288 299 292 269 265 269 263 261 276 277 264 259 281 284 209 202 242 253 233 183 129 204 254 277 60 74 35 37 209 235 264 60 71 140 213 226 244 255 253 216 186 188 207 185 120 42 9 64 102 108 108 100 83 75 92 104 108 106 103 106 117 124 122 114 102 94 104 116 121 119 116 112 111 115
304 297 288 305 318 320 279 300 279 148 149 208 186 183 244 269 284 300 286 278 293 300 292 298 317 319 301 279 234 260 276 272 72 21 251 247 291 65 83 238 241 233 253 18 55 124 235 227 226 248 270 268 206 195 205 210 162 122 83 32 51 81 87 91 98 93 80 84 98 106 108 109 113 119 123 124 123 120 118 124 135 136 134 130 125 123 129
329 346 58 15 322 284 180 324 295 213 220 225 194 172 191 223 247 264 256 248 268 297 300 304 304 279 266 266 261 278 292 314 10 273 264 268 31 109 208 229 243 35 39 18 17 313 269 259 259 266 260 226 202 196 199 205 184 142 117 95 90 104 107 106 108 110 112 116 118 116 116 119 122 124 129 136 139 139 141 150 156 152 146 140 135 133 138
54 160 93 57 302 274 198 236 259 235 208 201 192 193 210 226 239 252 260 270 293 302 302 302 294 270 265 280 329 286 289 323 265 266 297 79 146 239 228 207 121 50 40 4 294 238 240 247 258 258 235 211 198 190 191 205 203 154 136 143 165 169 154 140 134 132 137 138 132 130 136 140 137 135 137 143 150 153 154 158 164 165 160 153 150 152 154
72 303 99 105 287 290 233 206 222 229 243 241 221 223 241 255 260 262 269 278 286 290 296 299 290 268 259 260 180 264 282 320 223 271 306 81 235 273 340 66 180 202 170 189 231 242 242 247 259 256 233 203 181 173 179 199 205 181 158 156 164 172 175 165 142 133 139 146 143 145 154 151 145 145 146 151 165 171 167 165 172 177 174 166 164 167 170
138 299 121 145 238 240 220 237 282 294 274 265 269 276 286 302 310 303 294 287 290 304 312 311 301 282 280 297 220 264 285 304 233 257 279 246 246 307 17 17 265 245 187 183 209 232 240 243 258 266 245 188 161 162 177 196 200 185 167 158 158 167 181 184 162 150 157 159 154 159 169 166 163 162 158 156 168 177 175 176 183 183 175 170 171 172 176
112 115 169 191 262 254 237 252 320 318 299 296 314 330 346 345 318 300 296 299 305 309 302 282 244 237 271 302 72 78 283 287 276 282 291 274 240 216 140 164 232 258 247 216 217 234 246 253 275 288 267 197 167 170 185 194 193 184 178 176 171 171 181 188 178 164 164 163 163 171 177 174 169 164 150 143 163 182 187 190 192 188 181 181 182 181 184
129 156 206 201 246 280 288 310 317 300 306 329 341 337 337 327 303 292 303 313 312 317 327 338 17 236 273 336 50 349 269 244 125 78 278 261 234 188 138 164 207 227 240 241 243 254 266 274 282 273 241 201 178 181 192 192 189 189 187 179 171 176 188 190 179 167 168 172 172 171 171 171 173 171 164 164 174 184 190 200 207 204 199 199 201 202 204
195 234 236 211 213 239 269 305 277 272 289 309 309 300 303 300 281 288 313 321 324 350 3 350 328 331 337 7 47 300 265 180 76 327 273 265 249 123 131 186 219 229 245 263 270 272 275 275 261 232 212 194 184 188 192 188 185 185 178 167 169 177 182 183 179 175 171 170 169 170 177 186 188 183 176 171 170 172 184 212 223 217 209 208 213 218 225
213 226 254 248 229 221 228 245 254 254 260 266 262 255 261 265 267 290 312 319 324 6 348 303 278 319 318 272 241 292 287 236 84 268 258 265 297 121 193 218 232 243 263 280 293 305 311 315 311 247 216 202 188 178 171 168 172 172 163 161 170 172 172 178 182 172 158 162 174 183 188 191 189 177 163 158 161 168 193 223 227 219 214 216 221 227 235